www.pogodaiklimat.ru

Погода и климат >> Архив погоды >> Россия >> Магаданская область >> Эвенск


ПОГОДА в Эвенске

  • Прогноз погоды в Эвенске
  • Монитор погоды в Эвенске
  • Климат города

АРХИВ ПОГОДЫ в Эвенске

Время (UTC), дата Ветер
(напр.,м/с)
 
Видим.   Явления Облачность Т
(С)
Тd
(С)
f
(%)
Тe
(С)
Тes
(С)
Комфортность P
(гПа)
Po
(гПа)
Тmin
(С)
Tmax
(С)
R
(мм)
R24
(мм)
S
(см)
06 17.06 ЮЗ 2 50 км 10/10 300 м
[St]
+7.2 +4.3 82 +5 +5 1014.8 1013.3
09 17.06 ЮЗ 2 50 км 10/10 240 м
[St]
+6.0 +3.9 86 +4 +4 1014.4 1012.9 +7.7
12 17.06 ЮЗ 3 50 км 10/10 240 м
[St]
+5.9 +4.1 88 +3 +3 1014.5 1013.0
15 17.06 ЮЗ 3 50 км 10/10 270 м
[St]
+5.8 +4.0 88 +2 +2 1014.0 1012.6
18 17.06 штиль 0 4000 м слабая морось 10/10 420 м
[Frnb]
+5.2 +4.2 93 +4 +4 1013.8 1012.4
21 17.06 штиль 0 4000 м слабая морось 10/10 210 м
[St]
+6.2 +5.4 95 +5 +5 1013.7 1012.3 +5.1 0.4
00 18.06 ЮЗ 4 4000 м слабая морось 10/10 210 м
[St]
+6.9 +5.9 93 +3 +3 1013.9 1012.5
03 18.06 ЮЗ 3 4000 м слабая морось 10/10 210 м
[St]
+6.9 +5.5 91 +4 +4 1013.6 1012.1
06 18.06 ЮЗ 4 4000 м дымка {морось} 10/10 210 м
[St]
+7.7 +5.6 87 +4 +4 1012.7 1011.2
09 18.06 ЮЗ 3 10 км дымка 10/10 240 м
[St]
+6.8 +5.1 89 +4 +4 1012.7 1011.2 +7.8 0.5
12 18.06 ЮЗ 4 10 км дымка 10/10 180 м
[St]
+5.9 +4.8 93 +2 +2 1013.0 1011.6
15 18.06 ЮЗ 3 4000 м дымка 10/10 210 м
[St]
+5.7 +5.0 95 +2 +2 1012.8 1011.4
18 18.06 ЮЗ 3 2000 м слабая морось 10/10 180 м
[St]
+5.3 +4.7 96 +2 +2 1012.8 1011.3
21 18.06 Ю 2 2000 м слабая морось 10/10 150 м
[St]
+5.6 +4.8 95 +3 +3 1013.1 1011.6 +5.0 0.5
00 19.06 Ю 2 4000 м слабая морось 10/10 150 м
[St]
+6.2 +4.9 91 +4 +4 1013.3 1011.8
03 19.06 ЮЗ 3 4000 м дымка {морось} 10/10 210 м
[St]
+7.3 +4.6 83 +4 +4 1012.9 1011.4
06 19.06 штиль 0 4000 м дымка {морось} 10/10 210 м
[St]
+6.8 +4.5 85 +6 +6 1012.9 1011.5
09 19.06 ЮЗ 1 4000 м дымка 10/10 180 м
[St]
+5.7 +4.2 90 +4 +4 1013.5 1012.0 +7.5 0.0
12 19.06 ЮЗ 2 4000 м дымка 10/10 180 м
[St]
+5.4 +4.1 91 +3 +3 1013.7 1012.2
15 19.06 ЮЗ 2 4000 м дымка 10/10 180 м
[St]
+4.9 +3.7 92 +2 +2 1014.1 1012.6
18 19.06 штиль 0 4000 м дымка 10/10 180 м
[St]
+4.9 +3.9 93 +4 +4 1014.4 1012.9
21 19.06 Ю 3 4000 м слабая морось 10/10 180 м
[St]
+5.7 +4.9 95 +2 +2 1014.9 1013.4 +4.8 0.0
00 20.06 Ю 3 4000 м слабая морось 10/10 150 м
[St]
+5.5 +4.5 93 +2 +2 1015.7 1014.2
03 20.06 Ю 2 4000 м дымка {морось} 10/10 180 м
[St]
+7.8 +5.0 82 +6 +6 1015.7 1014.3
06 20.06 Ю 3 10 км дымка 10/10 240 м
[St]
+7.2 +4.6 84 +4 +4 1015.4 1014.0
09 20.06 Ю 2 4000 м дымка 10/10 240 м
[St]
+5.8 +4.3 90 +3 +3 1015.9 1014.5 +8.9 0.0
12 20.06 СВ 1 4000 м слабая морось 10/10 150 м
[St]
+4.7 +3.9 95 +3 +3 1016.6 1015.2
15 20.06 ЮВ 1 2000 м слабая морось 10/10 180 м
[St]
+4.5 +3.5 93 +3 +3 1017.0 1015.5
18 20.06 ЮВ 2 2000 м слабая морось 10/10 180 м
[St]
+3.8 +2.9 94 +1 +1 1017.6 1016.1
21 20.06 В 1 4000 м слабая морось 10/10 180 м
[St]
+4.5 +3.4 93 +3 +3 1018.1 1016.6 +3.7 0.3
00 21.06 Ю 2 4000 м дымка {морось} 10/10 240 м
[St]
+5.9 +3.3 83 +4 +4 1018.2 1016.7
03 21.06 ЮЗ 3 20 км 9/9 270 м
[St]
+7.8 +3.4 74 +5 +6 1017.7 1016.2
06 21.06 ЮЗ 2 20 км 9/9 240 м
[St]
+6.1 +3.3 82 +4 +4 1017.2 1015.7
09 21.06 Ю 2 20 км 10/10 180 м
[St]
+5.6 +3.7 88 +3 +3 1017.1 1015.7 +8.2 0.0
12 21.06 ЮЗ 1 2000 м дымка 10/10 150 м
[St]
+5.0 +4.3 95 +4 +4 1017.5 1016.0
15 21.06 С 1 500 м туман ?/? +4.5 +4.1 97 +3 +3 1017.1 1015.6
18 21.06 СВ 2 1000 м дымка {туман} 10/10 120 м
[St]
+3.4 +3.0 97 0 0 1017.2 1015.7
21 21.06 ЮЗ 1 10 км дымка 4/4 200 м
[St]
+7.4 +4.4 81 +7 +11 1016.8 1015.3 +3.2
00 22.06 ЮЗ 2 50 км ясно +10.9 +6.4 74 +10 +22 опасность
простуды
1015.5 1014.1
03 22.06 ЮЗ 2 50 км 1/1 1000 м
[Cu hum]
+14.6 +8.4 66 +14 +25 опасность
простуды
1014.1 1012.7
06 22.06 ЮЗ 2 50 км ясно +14.7 +8.8 68 +14 +20 1012.8 1011.4
09 22.06 штиль 0 50 км ясно +15.9 +7.7 58 +16 +17 1011.8 1010.4 +16.5
12 22.06 СВ 2 50 км ясно +8.7 +6.2 84 +7 +7 1011.6 1010.2
15 22.06 В 3 50 км ясно +5.9 +4.0 88 +3 +3 1011.7 1010.2
18 22.06 ЮВ 4 50 км ясно +9.6 +5.2 74 +7 +8 1010.9 1009.5
21 22.06 В 3 50 км ясно +18.7 +6.8 46 +19 +24 1010.9 1009.5 +5.9
00 23.06 штиль 0 50 км ясно +23.9 +4.0 27 +23 +41 комфорт 1010.4 1009.0
03 23.06 З 2 50 км 4/3 1000 м
[Cu med, cong Ci fib]
+21.9 +5.1 33 +22 +31 комфорт 1009.8 1008.4
06 23.06 З 2 50 км 3/3 1000 м
[Cu med, cong Ci fib]
+20.4 +7.1 42 +22 +26 комфорт 1008.9 1007.6
09 23.06 З 2 50 км 3/1 1000 м
[Cu med, cong Ci fib]
+18.5 +6.9 47 +19 +20 1008.7 1007.3 +24.8
12 23.06 штиль 0 50 км 4/0
[Ci fib]
+13.0 +6.1 63 +13 +13 1009.1 1007.7
15 23.06 С 2 50 км 3/0
[Ci fib]
+6.8 +4.5 85 +5 +5 1009.2 1007.7
18 23.06 С 2 50 км 3/0
[Ci fib]
+7.7 +4.3 79 +6 +7 1008.7 1007.2
21 23.06 штиль 0 50 км 4/0
[Ci fib]
+15.1 +7.5 60 +15 +23 1008.4 1007.0 +5.7
00 24.06 ЮЗ 2 50 км 4/0
[Ac trans Ci fib]
+17.7 +10.0 61 +18 +29 1007.8 1006.4
03 24.06 ЮЗ 3 50 км 4/0
[Ac trans Ci fib]
+19.4 +10.5 56 +21 +29 комфорт 1006.5 1005.1

 

Местоположение метеостанции Эвенск (Магаданская область, Россия): широта 61.92 долгота 159.20 высота над уровнем моря 12 м.

В архиве по умолчанию представлена погода в Эвенске за последнюю неделю. Архивные данные за месяц целиком и за предыдущие месяцы, начиная с января 2011 года, Вы можете получить, выбрав интересующий диапазон дат из раскрывающегося списка и нажав кнопку "Ввод!".


*Определитесь, кто Вы:
робот инопланетянин человек

Внимание! Время в таблицах - всемирное. Для получения местного времени необходимо прибавить поправку, которая в Эвенске равна 11 ч.

Смотрите также архив погоды в соседних городах и на ближайших метеорологических станциях:

Погода в Лабазной (Магаданская область, Россия) (158 км)
Погода в Омсукчане (Магаданская область, Россия) (188 км)
Погода в Шелихова (Магаданская область, Россия) (225 км)
Погода в Чемурнауте (Камчатский край, Россия) (242 км)
Погода в Кегали (Магаданская область, Россия) (275 км)
Погода в Палане (Камчатский край, Россия) (318 км)
Погода в Балыгычане (Магаданская область, Россия) (340 км)
Погода в Верхне-Пенжино (Камчатский край, Россия) (359 км)
Погода в Среднекане (Магаданская область, Россия) (363 км)
Погода в Оссоре (Камчатский край, Россия) (364 км)

Пояснения к столбцам:

Ветер - указаны скорость ветра в м/с - средняя за 10 мин, порывы в срок и между сроками (в фигурных скобках) и направление, откуда дует ветер: С - северный, СВ - северо-восточный, В - восточный, ЮВ - юго-восточный, Ю - южный, ЮЗ - юго-западный, З - западный, СЗ - северо-западный.
Видимость - горизонтальная дальность видимости в метрах или километрах. При видимости от 1 до 10 км при отсутствии осадков обычно наблюдается дымка, при ухудшении видимости до 1 км и менее - туман. В сухую погоду видимость может ухудшаться дымом, пылью или мглою.
Явления - указаны атмосферные явления, наблюдавшиеся в срок или в последний час перед сроком; фигурными скобками обозначены явления, наблюдавшиеся между сроками (за 1-3 часа до срока); квадратными скобками обозначены град или гололедные отложения с указанием их диаметра в мм.
Облачность - указаны через наклонную черту общая и нижняя облачность в баллах и высота нижней границы облаков в метрах; квадратными скобками обозначены формы облаков: Ci - перистые, Cs - перисто-слоистые, Cc - перисто-кучевые, Ac - высококучевые, As - высокослоистые, Sc - слоисто-кучевые, Ns - слоисто-дождевые, Cu - кучевые, Cb - кучево-дождевые. Подробнее классификацию облаков см. в Атласе облаков (PDF).
T - Температура воздуха - температура, измеренная на высоте 2 м над землей.
Td - Температура точки росы - температура, при понижении до которой содержащийся в воздухе водяной пар достигнет насыщения.
f - Относительная влажность воздуха - влажноcть воздуха, измеренная на высоте 2 м над землей.
Te - Эффективная температура - температура, которую ощущает одетый по сезону человек в тени. Характеристика душности погоды. При расчете учитывается влияние влажности воздуха и скорости ветра на теплоощущения человека.
Tes - Эффективная температура на солнце - температура, которую ощущает человек, с поправкой на солнечный нагрев. Характеристика знойности погоды. Зависит от высоты солнца над горизонтом, облачности и скорости ветра. Ночью, в пасмурную погоду, а также при ветре 12 м/с и более поправка равна нулю.
P - Атмосферное давление - приведенное к уровню моря атмосферное давление.
Po - Атмосферное давление - измеренное на уровне метеостанции атмосферное давление.
Tmin - Минимальная температура - минимум температуры воздуха на высоте 2 м над землей.
Tmax - Максимальная температура - максимум температуры воздуха на высоте 2 м над землей.
R - Количество осадков - Количество выпавших осадков за период времени, мм. При наведении курсора мыши на число - период времени, за который выпало указанное количество осадков.
R24 - Количество осадков - Количество выпавших осадков за 24 часа, мм.
S - Снежный покров - Высота снежного покрова, см. При наведении курсора мыши на число - состояние снежного покрова и степень покрытия местности в баллах.